(133265) = 1999 VR126 = 2002 LY52 = 2003 SX1

Discovered at Kitt Peak on 2003-09-16 by Spacewatch.

Orbit

Orbit type: Main Belt

Note: WebGL enabled browser required.

epoch2023-02-25.0
epoch JD2460000.5
perihelion date2019-04-05.83099
perihelion JD2458579.33099
argument of perihelion (°)43.77934
ascending node (°)176.34449
inclination (°)2.25502
eccentricity0.0841054
perihelion distance (AU)2.4076198
Tisserand w.r.t. Jupiter3.4
ΔV w.r.t. Earth (km/sec)9.7
semimajor axis (AU)2.6287084
mean anomaly (°)328.65175
mean daily motion (°/day)0.23125450
aphelion distance (AU)2.850
period (years)4.26
P-vector [x]-0.76461937
P-vector [y]-0.60160203
P-vector [z]-0.23115410
Q-vector [x]0.64447725
Q-vector [y]-0.71234449
Q-vector [z]-0.27787480
absolute magnitude16.33
phase slope0.15
uncertainty0
referenceMPO 745323
observations used551
oppositions18
arc length (days)8587
first opposition used1999
last opposition used2023
residual rms (arc-secs)0.71
perturbers coarse indicatorM-v
perturbers precise indicator003Ek
first observation date used1999-11-09.0
last observation date used2023-05-14.0
computer nameMPCLINUX
JD of orbit computation2456789.257527
perihelion JD uncertainty (days)1.4357E-04
argument of perihelion uncertainty (°)1.0683E-04
ascending node uncertainty (°)1.0253E-04
inclination uncertainty (°)5.4409E-06
eccentricity uncertainty 5.2379E-08
perihelion distance uncertainty (AU)1.4672E-07
Minimum Orbit Intersection Distances (in AU)
for orbit epoch: 2460000.5, reference: E2023-JF5
Mercury1.95521
Venus1.68437
Earth1.4004
Mars0.79515
Jupiter2.1136
Saturn6.26834
Uranus15.9297
Neptune27.0072

Observations

546 total observations over interval: 1999 11 09.21445 – 2023 05 14.298201
These data are available for download (format description).

Date (UT) J2000 RA J2000 Dec Magn Location Ref
1999 11 09.21445 00 47 08.95 +03 28 10.9 21.2 V 691 – Steward Observatory, Kitt Peak-Spacewatch MPS 8793
1999 11 09.23778 00 47 08.23 +03 28 06.3 21.0 V 691 – Steward Observatory, Kitt Peak-Spacewatch MPS 8793
1999 11 09.25913 00 47 07.57 +03 28 02.1 21.0 V 691 – Steward Observatory, Kitt Peak-Spacewatch MPS 8794
1999 11 13.20815 00 45 22.30 +03 15 59.7 20.9 V 691 – Steward Observatory, Kitt Peak-Spacewatch MPS 8794
1999 11 13.22922 00 45 21.77 +03 15 56.1 20.9 V 691 – Steward Observatory, Kitt Peak-Spacewatch MPS 8794
1999 11 13.25041 00 45 21.22 +03 15 52.6 21.0 V 691 – Steward Observatory, Kitt Peak-Spacewatch MPS 8794
2002 05 19.29185 15 33 44.67 -15 45 22.6 19.8   644 – Palomar Mountain/NEAT MPS 112867
2002 05 19.35179 15 33 41.28 -15 45 09.2 19.2   644 – Palomar Mountain/NEAT MPS 112867
2002 05 19.41436 15 33 37.82 -15 44 55.2 19.0   644 – Palomar Mountain/NEAT MPS 112867
2002 06 08.24549 15 18 02.94 -14 45 35.2 19.4   704 – Lincoln Laboratory ETS, New Mexico MPS 57917
2002 06 08.25877 15 18 02.36 -14 45 33.7 19.6   704 – Lincoln Laboratory ETS, New Mexico MPS 57917
2002 06 08.27213 15 18 01.86 -14 45 33.1 19.8   704 – Lincoln Laboratory ETS, New Mexico MPS 57917
2002 06 11.24525 15 16 18.25 -14 39 52.2 19.9   644 – Palomar Mountain/NEAT MPS 57917
2002 06 11.26601 15 16 17.54 -14 39 50.1 19.7   644 – Palomar Mountain/NEAT MPS 57917
2002 06 11.29749 15 16 16.46 -14 39 46.7 19.6   644 – Palomar Mountain/NEAT MPS 57917
2003 09 16.33956 23 37 20.00 -02 14 43.2 20.0 V 691 – Steward Observatory, Kitt Peak-Spacewatch MPS 84612
2003 09 16.36659 23 37 18.66 -02 14 53.4 20.2 V 691 – Steward Observatory, Kitt Peak-Spacewatch MPS 84612
2003 09 16.39370 23 37 17.26 -02 15 03.3 20.3 V 691 – Steward Observatory, Kitt Peak-Spacewatch MPS 84612
2003 09 17.26668 23 36 34.18 -02 20 26.2 19.8 V 291 – LPL/Spacewatch II MPS 84612
2003 09 17.29062 23 36 32.99 -02 20 35.2 19.7 V 291 – LPL/Spacewatch II MPS 84612
2003 09 17.33428 23 36 30.76 -02 20 51.4 19.8 V 291 – LPL/Spacewatch II MPS 84612
2003 09 28.20803 23 27 47.76 -03 26 04.6 20.6 V 691 – Steward Observatory, Kitt Peak-Spacewatch MPS 86980
2003 09 28.23649 23 27 46.42 -03 26 14.2 20.5 V 691 – Steward Observatory, Kitt Peak-Spacewatch MPS 86980
2003 09 28.26756 23 27 44.96 -03 26 24.9 20.5 V 691 – Steward Observatory, Kitt Peak-Spacewatch MPS 86980
2003 10 17.10846 23 16 12.76 -04 54 36.6 21.4 V 691 – Steward Observatory, Kitt Peak-Spacewatch MPS 112867
2003 10 17.14254 23 16 11.85 -04 54 44.1 20.9 V 691 – Steward Observatory, Kitt Peak-Spacewatch MPS 112867
2003 10 17.16939 23 16 11.07 -04 54 49.8 21.1 V 691 – Steward Observatory, Kitt Peak-Spacewatch MPS 112867
2003 10 22.14257 23 14 18.91 -05 10 06.0 20.3 R 695 – Kitt Peak MPS 112867
2003 10 22.22907 23 14 17.14 -05 10 19.8   695 – Kitt Peak MPS 112867
2004 12 13.16793 05 40 31.61 +19 52 56.6 19.8 V 691 – Steward Observatory, Kitt Peak-Spacewatch MPS 163787
2004 12 13.19393 05 40 30.04 +19 52 55.9 19.9 V 691 – Steward Observatory, Kitt Peak-Spacewatch MPS 163787
2004 12 13.22008 05 40 28.40 +19 52 55.0 19.8 V 691 – Steward Observatory, Kitt Peak-Spacewatch MPS 163787
2006 01 28.52321 13 25 19.02 -08 46 48.5 21.1 V G96 – Mt. Lemmon Survey MPS 161769
2006 01 28.52815 13 25 19.16 -08 46 49.5 21.2 V G96 – Mt. Lemmon Survey MPS 161769
2006 01 28.53309 13 25 19.41 -08 46 50.3 21.1 V G96 – Mt. Lemmon Survey MPS 161769
2006 01 28.53803 13 25 19.63 -08 46 51.2 20.6 V G96 – Mt. Lemmon Survey MPS 161769
2006 03 23.36931 13 26 19.21 -07 49 17.8 19.6 V G96 – Mt. Lemmon Survey MPS 167042
2006 03 23.37561 13 26 18.92 -07 49 15.7 19.5 V G96 – Mt. Lemmon Survey MPS 167042
2006 03 23.38197 13 26 18.67 -07 49 13.9 19.6 V G96 – Mt. Lemmon Survey MPS 167042
2006 03 23.38811 13 26 18.42 -07 49 11.9 19.3 V G96 – Mt. Lemmon Survey MPS 167042
2006 04 08.42737 13 14 00.92 -06 15 20.7 18.9 V 703 – Catalina Sky Survey MPS 168809
2006 04 08.43121 13 14 00.70 -06 15 20.0 18.3 V 703 – Catalina Sky Survey MPS 168809
2006 04 08.43781 13 14 00.38 -06 15 16.6 18.4 V 703 – Catalina Sky Survey MPS 168809
2006 04 08.44110 13 14 00.20 -06 15 14.7 18.8 V 703 – Catalina Sky Survey MPS 168809
2006 04 09.18937 13 13 23.50 -06 10 38.6   691 – Steward Observatory, Kitt Peak-Spacewatch MPS 168809
2006 04 09.20667 13 13 22.61 -06 10 32.4   691 – Steward Observatory, Kitt Peak-Spacewatch MPS 168809
2006 04 09.22393 13 13 21.72 -06 10 26.1   691 – Steward Observatory, Kitt Peak-Spacewatch MPS 168809
2006 04 20.32417 13 04 21.10 -05 03 59.5 19.4 V 703 – Catalina Sky Survey MPS 169153
2006 04 20.33119 13 04 20.78 -05 03 56.9 19.3 V 703 – Catalina Sky Survey MPS 169153
2006 04 20.33822 13 04 20.35 -05 03 54.3 19.8 V 703 – Catalina Sky Survey MPS 169153
2006 04 20.34522 13 04 20.02 -05 03 51.1 20.7 V 703 – Catalina Sky Survey MPS 169153
2006 04 24.16449 13 01 29.50 -04 42 59.6 19.9 V 691 – Steward Observatory, Kitt Peak-Spacewatch MPS 169889
2006 04 24.17725 13 01 28.92 -04 42 55.2 19.8 V 691 – Steward Observatory, Kitt Peak-Spacewatch MPS 169889
2006 04 24.19000 13 01 28.36 -04 42 51.2 19.7 V 691 – Steward Observatory, Kitt Peak-Spacewatch MPS 169889
2006 04 30.15061 12 57 29.21 -04 13 44.1 19.8 V 691 – Steward Observatory, Kitt Peak-Spacewatch MPS 170811
2006 04 30.16857 12 57 28.53 -04 13 39.2 19.8 V 691 – Steward Observatory, Kitt Peak-Spacewatch MPS 170811
2006 04 30.18659 12 57 27.82 -04 13 34.5 19.8 V 691 – Steward Observatory, Kitt Peak-Spacewatch MPS 170811
2007 07 18.38082 22 20 35.34 -08 11 03.4 20.1 V G96 – Mt. Lemmon Survey MPS 212235
2007 07 18.38424 22 20 35.23 -08 11 03.9 20.2 V G96 – Mt. Lemmon Survey MPS 212235
2007 07 18.38749 22 20 35.16 -08 11 04.2 20.2 V G96 – Mt. Lemmon Survey MPS 212235
2007 07 18.39458 22 20 34.98 -08 11 05.2 20.1 V G96 – Mt. Lemmon Survey MPS 212235
2007 08 09.23012 22 07 04.69 -09 34 42.9 20.0   704 – Lincoln Laboratory ETS, New Mexico MPS 212992
2007 08 09.24198 22 07 04.17 -09 34 47.4 20.0   704 – Lincoln Laboratory ETS, New Mexico MPS 212992
2007 08 09.25381 22 07 03.54 -09 34 51.2 20.2   704 – Lincoln Laboratory ETS, New Mexico MPS 212992
2007 08 09.26562 22 07 02.94 -09 34 54.4 20.0   704 – Lincoln Laboratory ETS, New Mexico MPS 212992
2007 09 10.11831 21 41 31.60 -12 18 11.9 20.2 V 691 – Steward Observatory, Kitt Peak-Spacewatch MPS 215895
2007 09 10.13178 21 41 31.03 -12 18 15.0 20.0 V 691 – Steward Observatory, Kitt Peak-Spacewatch MPS 215895
2007 09 10.14527 21 41 30.47 -12 18 18.1 20.8 V 691 – Steward Observatory, Kitt Peak-Spacewatch MPS 215895
2007 09 15.20208 21 38 29.22 -12 39 04.5 19.8 V G96 – Mt. Lemmon Survey MPS 217662
2007 09 15.20766 21 38 29.07 -12 39 05.9 19.8 V G96 – Mt. Lemmon Survey MPS 217662
2007 09 15.21321 21 38 28.86 -12 39 07.4 20.1 V G96 – Mt. Lemmon Survey MPS 217662
2007 09 15.21882 21 38 28.64 -12 39 08.4 20.2 V G96 – Mt. Lemmon Survey MPS 217662
2008 10 23.42075 04 21 45.93 +18 44 15.8 19.7 V G96 – Mt. Lemmon Survey MPS 261163
2008 10 23.43267 04 21 45.54 +18 44 14.2 20.1 V G96 – Mt. Lemmon Survey MPS 261163
2008 10 23.43865 04 21 45.32 +18 44 13.4 19.7 V G96 – Mt. Lemmon Survey MPS 261163
2008 11 07.28891 04 11 28.96 +18 04 46.0 20.0 V G96 – Mt. Lemmon Survey MPS 264417
2008 11 07.29830 04 11 28.46 +18 04 44.2 20.0 V G96 – Mt. Lemmon Survey MPS 264417
2008 11 07.30768 04 11 27.99 +18 04 42.9 19.8 V G96 – Mt. Lemmon Survey MPS 264417
2008 11 07.31703 04 11 27.45 +18 04 41.0 19.7 V G96 – Mt. Lemmon Survey MPS 264417
2008 11 20.34044 03 59 34.44 +17 24 01.0 19.4 V G96 – Mt. Lemmon Survey MPS 266180
2008 11 20.34605 03 59 34.11 +17 23 59.9 19.3 V G96 – Mt. Lemmon Survey MPS 266180
2008 11 20.35161 03 59 33.79 +17 23 58.9 19.3 V G96 – Mt. Lemmon Survey MPS 266180
2008 11 20.35816 03 59 33.39 +17 23 57.5 19.3 V G96 – Mt. Lemmon Survey MPS 266180
2008 12 01.25460 03 49 09.29 +16 50 01.3 19.8   704 – Lincoln Laboratory ETS, New Mexico MPS 268599
2008 12 01.26723 03 49 08.65 +16 49 59.7 19.9   704 – Lincoln Laboratory ETS, New Mexico MPS 268599
2008 12 01.27982 03 49 07.88 +16 49 55.0 20.5   704 – Lincoln Laboratory ETS, New Mexico MPS 268599
2008 12 01.29248 03 49 07.17 +16 49 53.5 20.2   704 – Lincoln Laboratory ETS, New Mexico MPS 268599
